HP2BWJ-13 Weather Reports


Display with metric or nautical units.
time (UTC)temp
F
wind
direction
speed
MPH
gust
MPH
rain 1hr
in
rain 24hr
in
rain mn
in
humidity
%
barometer
mb
20260504081051 78 287 3.0 5.0 0.00 0.00 0.00 91 1011.0
20260504080951 78 287 3.0 5.0 0.00 0.00 0.00 91 1011.0
20260504045042 77 48 4.0 5.0 0.00 0.00 0.00 89 1012.0
20260504044942 77 48 4.0 5.0 0.00 0.00 0.00 89 1012.0
20260504043042 78 48 4.0 5.0 0.01 0.00 0.00 89 1013.0
20260504042941 78 48 4.0 5.0 0.01 0.00 0.00 89 1013.0
20260504041041 79 48 4.0 5.0 0.00 0.00 0.00 89 1013.0
20260504040940 79 48 4.0 5.0 0.00 0.00 0.00 89 1013.0
20260504035039 80 48 4.0 5.0 0.01 0.00 0.00 89 1012.0
20260504034939 80 48 4.0 5.0 0.01 0.00 0.00 89 1012.0
20260504033037 81 48 4.0 5.0 0.00 0.00 0.00 89 1012.0
20260504032937 81 48 4.0 5.0 0.00 0.00 0.00 89 1012.0
20260504031036 82 48 4.0 5.0 0.00 0.00 0.00 89 1013.0
20260504030936 82 48 4.0 5.0 0.00 0.00 0.00 89 1013.0
20260504025035 74 332 1.0 4.0 0.00 0.00 0.00 84 1012.0
20260504024935 74 332 1.0 4.0 0.00 0.00 0.00 84 1012.0
20260504023034 75 332 1.0 4.0 0.00 0.00 0.00 84 1012.0
20260504022934 75 332 1.0 4.0 0.00 0.00 0.00 84 1012.0
20260504021033 76 332 1.0 4.0 0.00 0.00 0.00 84 1012.0
20260504020933 76 332 1.0 4.0 0.00 0.00 0.00 84 1012.0
20260504015032 77 332 1.0 4.0 0.00 0.00 0.00 84 1011.0
20260504014932 77 332 1.0 4.0 0.00 0.00 0.00 84 1011.0
20260504013031 78 332 1.0 4.0 0.00 0.00 0.00 84 1011.0
20260504012930 78 332 1.0 4.0 0.00 0.00 0.00 84 1011.0
20260504011030 79 332 1.0 4.0 0.00 0.00 0.00 84 1011.0
20260504010929 79 332 1.0 4.0 0.00 0.00 0.00 84 1011.0
20260504005029 80 332 1.0 4.0 0.02 0.00 0.00 84 1011.0
20260504004929 80 332 1.0 4.0 0.02 0.00 0.00 84 1011.0
20260504003027 81 332 1.0 4.0 0.00 0.00 0.00 84 1011.0
20260504002927 81 332 1.0 4.0 0.00 0.00 0.00 84 1011.0
20260504001026 82 332 2.0 4.0 0.00 0.00 0.00 84 1010.0
20260504000926 82 332 2.0 4.0 0.00 0.00 0.00 84 1010.0
20260503235025 75 321 4.0 5.0 0.01 0.00 0.00 75 1010.0
20260503234925 75 321 4.0 5.0 0.01 0.00 0.00 75 1010.0
20260503233024 76 321 4.0 5.0 0.00 0.00 0.00 75 1010.0
20260503232924 76 321 4.0 5.0 0.00 0.00 0.00 75 1010.0
20260503231023 77 321 4.0 5.0 0.00 0.00 0.00 75 1010.0
20260503230923 77 321 4.0 5.0 0.00 0.00 0.00 75 1010.0
20260503225022 78 321 4.0 5.0 0.00 0.00 0.00 75 1009.0
20260503224922 78 321 4.0 5.0 0.00 0.00 0.00 75 1009.0
20260503223022 79 321 4.0 5.0 0.00 0.00 0.00 75 1009.0
20260503222921 79 321 4.0 5.0 0.00 0.00 0.00 75 1009.0
20260503221021 80 321 4.0 5.0 0.00 0.00 0.00 75 1009.0
20260503220920 80 321 4.0 5.0 0.00 0.00 0.00 75 1009.0
20260503215020 81 321 4.0 5.0 0.00 0.00 0.00 75 1009.0
20260503214919 81 321 4.0 5.0 0.00 0.00 0.00 75 1009.0
20260503213019 82 321 4.0 5.0 0.00 0.00 0.00 75 1009.0
20260503212919 82 321 4.0 5.0 0.00 0.00 0.00 75 1009.0
20260503211018 83 321 4.0 5.0 0.00 0.00 0.00 75 1009.0
20260503210918 83 321 4.0 5.0 0.00 0.00 0.00 75 1009.0
20260503205017 84 321 4.0 5.0 0.01 0.00 0.00 75 1009.0
20260503204917 84 321 4.0 5.0 0.01 0.00 0.00 75 1009.0
20260503203016 85 321 4.0 5.0 0.00 0.00 0.00 75 1009.0
20260503202916 85 321 4.0 5.0 0.00 0.00 0.00 75 1009.0
20260503201013 86 321 4.0 5.0 0.00 0.00 0.00 75 1010.0
20260503200913 86 321 4.0 5.0 0.00 0.00 0.00 75 1010.0
20260503195012 87 321 4.0 5.0 0.03 0.00 0.00 75 1009.0
20260503194912 87 321 4.0 5.0 0.03 0.00 0.00 75 1009.0
20260503193011 88 321 4.0 6.0 0.05 0.00 0.00 75 1010.0
20260503192911 88 321 4.0 6.0 0.05 0.00 0.00 75 1010.0
20260503191011 79 286 3.0 4.0 0.02 0.00 0.00 73 1010.0
20260503190910 79 286 3.0 4.0 0.02 0.00 0.00 73 1010.0
20260503185009 80 286 3.0 4.0 0.00 0.00 0.00 73 1010.0
20260503184909 80 286 3.0 4.0 0.00 0.00 0.00 73 1010.0
20260503183008 81 286 3.0 4.0 0.01 0.00 0.00 73 1011.0
20260503181007 82 286 3.0 4.0 0.00 0.00 0.00 73 1011.0
20260503180907 82 286 3.0 4.0 0.00 0.00 0.00 73 1011.0
20260503175010 83 286 3.0 4.0 0.01 0.00 0.00 73 1011.0
20260503174906 83 286 3.0 4.0 0.01 0.00 0.00 73 1011.0
20260503173005 84 286 3.0 4.0 0.00 0.00 0.00 73 1012.0
20260503172905 84 286 3.0 4.0 0.00 0.00 0.00 73 1012.0
20260503171004 85 286 3.0 4.0 0.00 0.00 0.00 73 1012.0
20260503170904 85 286 3.0 4.0 0.00 0.00 0.00 73 1012.0
20260503150959 82 258 1.0 3.0 0.00 0.00 0.00 78 1012.0
20260503150858 82 258 1.0 3.0 0.00 0.00 0.00 78 1012.0
20260503130953 80 193 1.0 1.0 0.00 0.00 0.00 91 1012.0
20260503130853 80 193 1.0 1.0 0.00 0.00 0.00 91 1012.0